Hourly Data Report for January 10, 2017

All times are specified in Local Standard Time (LST). Add 1 hour to adjust for Daylight Saving Time where and when it is observed.

ST LEONARD CS
NEW BRUNSWICK

47°09'28.050" N
67°49'55.014" W
245.00 m
810I001
71019
WIY

Download Data

Hourly Data (January 2017)
Hourly Data Report for January 10, 2017
Temp Definition
°C
Dew Point Temp Definition
°C
Rel Hum Definition
%
Wind Dir Definition
10's deg

Wind Spd Definition
km/h
Visibility Definition
km
Stn Press Definition
kPa
Hmdx Definition


Wind Chill Definition


Weather Definition


TIME
00:00 -17.2 -21.0 72 14 8   100.31   -23 LegendNANA
01:00 -16.9 -20.6 73 15 14   100.27   -25 LegendNANA
02:00 -17.2 -19.6 81 14 13   100.26   -25 LegendNANA
03:00 -17.2 -20.1 78 13 10   100.33   -24 LegendNANA
04:00 -17.4 -20.6 76 15 11   100.33   -25 LegendNANA
05:00 -17.1 -20.1 77 13 9   100.34   -23 LegendNANA
06:00 -16.7 -20.0 75 15 9   100.38   -23 LegendNANA
07:00 -16.6 -20.0 75 15 9   100.45   -23 LegendNANA
08:00 -19.0 -21.1 83 10 6   100.51   -24 LegendNANA
09:00 -16.9 -19.9 77 14 8   100.56   -23 LegendNANA
10:00 -14.5 -18.8 70 14 7   100.63   -19 LegendNANA
11:00 -12.5 -17.9 64 15 9   100.62   -18 LegendNANA
12:00 -11.6 -17.2 64 15 11   100.56   -18 LegendNANA
13:00 -11.5 -16.5 66 13 13   100.44   -18 LegendNANA
14:00 -9.9 -15.7 62 14 15   100.35   -17 LegendNANA
15:00 -8.5 -14.9 60 13 11   100.35   -14 LegendNANA
16:00 -8.1 -14.0 62 12 10   100.28   -13 LegendNANA
17:00 -8.7 -14.6 62 14 12   100.27   -14 LegendNANA
18:00 -8.5 -14.2 63 15 17   100.21   -15 LegendNANA
19:00 -7.9 -12.4 70 15 15   100.15   -14 LegendNANA
20:00 -5.9 -9.5 75 17 21   100.09   -13 LegendNANA
21:00 -5.2 -7.2 86 15 18   99.95   -11 LegendNANA
22:00 -3.0 -4.7 88 16 27   99.83   -10 LegendNANA
23:00 -1.4 -2.3 94 15 32   99.63   -9 LegendNANA

Notes on Data Quality.

Legend

  • E = Estimated
  • M = Missing
  • NA = Not Available
  • ‡ = Partner data that is not subject to review by the National Climate Archives
Date modified: